Weather Roundup
Issued by NWS

Home | Current Version | Previous Version | Graphics & Text | Print | Product List | Glossary Off
Versions: 1 2 3 4 5 6 7 8 9 10 11 12 13 14 15 16 17 18 19 20 21 22 23 24 25 26 27 28 29 30 31 32 33 34 35 36 37 38 39 40 41 42 43 44 45 46 47 48 49 50

000
NZUS93 KARX 011259
HRRWXR

CURRENT HOURLY OBSERVATIONS ACROSS
MUCH OF THE UPPER MISSISSIPPI VALLEY
NATIONAL WEATHER SERVICE LA CROSSE WI
800 AM CDT MON SEP 01 2014


...SOUTHEAST MINNESOTA...


CITY           SKY/WX    TMP DP  RH WIND       PRES   REMARKS
ROCHESTER      LGT RAIN  64  63  96 SW8       29.70R FOG
ROCHESTER/MAYO CLOUDY    64  63  97 SW7       29.69R
WINONA         LGT RAIN  66  64  94 CALM      29.67S
AUSTIN         CLOUDY    64  64 100 W5        29.70R
ALBERT LEA     PTSUNNY   66  64  94 CALM      29.69S
DODGE CENTER   CLOUDY    64  64 100 W6        29.69S
PRESTON        CLOUDY    63  63 100 SW5       29.70R FOG
OWATONNA       PTSUNNY   66  63  88 CALM      29.68S
FARIBAULT      CLOUDY    68  63  83 CALM      29.68R
$$

...ELSEWHERE IN MINNESOTA...


CITY           SKY/WX    TMP DP  RH WIND       PRES   REMARKS
MINNEAPOLIS    PTSUNNY   66  64  93 CALM      29.65R
INTNL FALLS    CLOUDY    59  58  96 NW10      29.60R
DULUTH         CLOUDY    62  58  86 NW10      29.62R
RED WING       PTSUNNY   66  64  94 CALM      29.64F
REDWOOD FALLS  PTSUNNY   64  62  93 W7        29.69R
MANKATO        MOSUNNY   64  59  82 SW5       29.68R
WORTHINGTON    PTSUNNY   63  61  94 NW6       29.74R
FAIRMONT       PTSUNNY   64  61  88 W5        29.70R
$$

...SOUTHWEST WISCONSIN...


CITY           SKY/WX    TMP DP  RH WIND       PRES   REMARKS
LA CROSSE      RAIN      66  63  90 S10       29.67F FOG
PRAIRIE DU CHI CLOUDY    67  62  83 S3        29.71R
BOSCOBEL       CLOUDY    68  63  84 SW7       29.72R
LONE ROCK      NOT AVBL
PLATTEVILLE    CLOUDY    67  64  91 SW7       29.76R
FORT MC COY    LGT RAIN  64  61  89 CALM      29.70R
VIROQUA        PTSUNNY   65  65 100 SW8G16    29.70F
WIS DELLS      CLOUDY    70  58  66 SW8       29.69S
$$

...ELSEWHERE IN WISCONSIN...


CITY           SKY/WX    TMP DP  RH WIND       PRES   REMARKS
MILWAUKEE      PTSUNNY   72  68  87 SE13      29.68F
MADISON        LGT RAIN  70  63  78 S10       29.70R
GREEN BAY      PTSUNNY   71  68  90 SE8       29.63F
EAU CLAIRE     TSTM      64  64 100 S13       29.67R FOG
BLACK RVR FLS  HVY RAIN  64  64 100 CALM      29.67F
MEDFORD        LGT RAIN  62  60  96 SW5       29.68S
WAUSAU         CLOUDY    66  60  81 SW7       29.68R
WIS RAPIDS     CLOUDY    65  62  90 SW6       29.71R
MARSHFIELD     CLOUDY    64  61  90 SW6       29.69R
RICE LAKE      RAIN      64  62  94 SW6       29.66S
$$

...NORTHEAST IOWA...


CITY           SKY/WX    TMP DP  RH WIND       PRES   REMARKS
WATERLOO       CLOUDY    66  64  93 SW14      29.71R
DUBUQUE        CLOUDY    64  63  96 SW8       29.75R
DECORAH        CLOUDY    64  63  94 SW9G16    29.69S
MASON CITY     CLOUDY    67  66  97 W10       29.71S
CHARLES CITY   CLOUDY    64  64 100 SW12G20   29.71R FOG
OELWEIN        RAIN      64  64 100 SW13G18   29.73R
$$

...ELSEWHERE IN IOWA...


CITY           SKY/WX    TMP DP  RH WIND       PRES   REMARKS
DES MOINES     CLOUDY    70  64  81 SW14      29.75R
IOWA CITY      PTSUNNY   67  65  93 SW7       29.77R
FORT DODGE     CLOUDY    66  64  94 W8        29.74R
MARSHALLTOWN   PTSUNNY   66  64  93 SW10      29.73S
CEDAR RAPIDS   PTSUNNY   66  65  96 SW9       29.75R
$$

...NORTHERN ILLINOIS...


CITY           SKY/WX    TMP DP  RH WIND       PRES   REMARKS
CHICAGO-OHARE  CLOUDY    74  68  81 S14       29.74F
DUPAGE         CLOUDY    74  70  87 S18G29    29.74F
CHICAGO-MIDWAY CLOUDY    76  72  87 S17G23    29.76F
MOLINE         CLOUDY    67  64  90 N5        29.71F
ROCKFORD       CLOUDY    72  69  90 S10       29.73R FOG
STERLING       CLOUDY    66  64  94 W3        29.75R
PEORIA         CLOUDY    75  70  84 S16G22    29.75F
$$

NOTE: "FAIR" INDICATES FEW OR NO CLOUDS BELOW 12,000 FEET WITH NO
SIGNIFICANT WEATHER AND/OR OBSTRUCTIONS TO VISIBILITY. WIND
SPEEDS ARE IN MILES-PER-HOUR.



USA.gov is the U.S. government's official web portal to all federal, state and local government web resources and services.